User: anonymous   Login
Location: Unspecified
(0.0000°N, 0.0000°E)
Time: 02:58:10
(UTC+00:00)
Language:

CAS-4A - Orbit

View from above orbital plane
View from above orbital plane
View from above satellite
View from above satellite

Ground track
Ground track

The orbit data is extracted from the following two-line orbital elements,

1 42761U 17034D   18267.83945317 +.00000177 +00000-0 +24458-4 0  9991
2 42761 043.0181 255.8693 0010645 006.3638 062.7433 15.09449738070506
Epoch (UTC): 24 September 2018 20:08:48
Eccentricity: 0.0010645
inclination: 43.0181°
perigee height: 530 km
apogee height: 545 km
right ascension of ascending node: 255.8693°
argument of perigee: 6.3638°
revolutions per day: 15.09449738
mean anomaly at epoch: 62.7433°
orbit number at epoch: 7050

The dashed part of the orbit path shows where the satellite is in the earth's shadow,  

DLR